| time (UTC) | temp C | wind direction | speed KPH | gust KPH | rain 1hr cm | rain 24hr cm | rain mn cm | humidity % | barometer mb |
| 20260504081524 | 8 | 171 | 0.0 | 0.0 | 0.00 | 0.00 | 0.00 | 54 | 1015.1 |
| 20260504081007 | 8 | 171 | 0.0 | 0.0 | 0.00 | 0.00 | 0.00 | 54 | 1015.1 |
| 20260504080505 | 8 | 172 | 0.0 | 0.0 | 0.00 | 0.00 | 0.00 | 54 | 1015.1 |
| 20260504070143 | 8 | 221 | 0.0 | 0.0 | 0.00 | 0.00 | 0.00 | 52 | 1015.2 |
| 20260504044657 | 8 | 288 | 0.0 | 0.0 | 0.00 | 0.00 | 0.00 | 55 | 1015.5 |
| 20260504044140 | 8 | 288 | 0.0 | 0.0 | 0.00 | 0.00 | 0.00 | 56 | 1015.5 |
| 20260504043647 | 8 | 288 | 0.0 | 0.0 | 0.00 | 0.00 | 0.00 | 56 | 1015.5 |
| 20260504043138 | 8 | 288 | 0.0 | 0.0 | 0.00 | 0.00 | 0.00 | 56 | 1015.5 |
| 20260504042636 | 8 | 289 | 0.0 | 0.0 | 0.00 | 0.00 | 0.00 | 54 | 1015.4 |
| 20260504042117 | 8 | 289 | 0.0 | 0.0 | 0.00 | 0.00 | 0.00 | 52 | 1015.4 |
| 20260504040944 | 8 | 289 | 0.0 | 0.0 | 0.00 | 0.00 | 0.00 | 53 | 1015.4 |
| 20260504040444 | 8 | 290 | 0.0 | 0.0 | 0.00 | 0.00 | 0.00 | 53 | 1015.3 |
| 20260504035941 | 8 | 290 | 0.0 | 0.0 | 0.00 | 0.00 | 0.00 | 54 | 1015.2 |
| 20260504035438 | 8 | 290 | 0.0 | 0.0 | 0.00 | 0.00 | 0.00 | 55 | 1015.2 |
| 20260504034928 | 8 | 290 | 0.0 | 0.0 | 0.00 | 0.00 | 0.00 | 57 | 1015.2 |
| 20260504034428 | 8 | 290 | 0.0 | 0.0 | 0.00 | 0.00 | 0.00 | 58 | 1015.1 |
| 20260504033912 | 8 | 290 | 0.0 | 0.0 | 0.00 | 0.00 | 0.00 | 58 | 1015.1 |
| 20260504033411 | 8 | 290 | 0.0 | 0.0 | 0.00 | 0.00 | 0.00 | 56 | 1015.1 |
| 20260504032907 | 8 | 290 | 0.0 | 0.0 | 0.00 | 0.00 | 0.00 | 52 | 1014.9 |
| 20260504032358 | 8 | 290 | 0.0 | 0.0 | 0.00 | 0.00 | 0.00 | 50 | 1015.2 |
| 20260504031247 | 8 | 290 | 0.0 | 0.0 | 0.00 | 0.00 | 0.00 | 51 | 1015.1 |
| 20260504030741 | 8 | 290 | 0.0 | 0.0 | 0.00 | 0.00 | 0.00 | 51 | 1015.0 |
| 20260504025631 | 9 | 290 | 0.0 | 0.0 | 0.00 | 0.00 | 0.00 | 50 | 1015.0 |
| 20260504025123 | 9 | 290 | 0.0 | 0.0 | 0.00 | 0.00 | 0.00 | 52 | 1015.0 |
| 20260504024008 | 9 | 290 | 0.0 | 0.0 | 0.00 | 0.00 | 0.00 | 52 | 1015.0 |
| 20260504023500 | 9 | 290 | 0.0 | 0.0 | 0.00 | 0.00 | 0.00 | 53 | 1015.0 |
| 20260504022958 | 10 | 290 | 0.0 | 0.0 | 0.00 | 0.00 | 0.00 | 54 | 1015.0 |
| 20260504022440 | 10 | 290 | 0.0 | 0.0 | 0.00 | 0.00 | 0.00 | 49 | 1014.9 |
| 20260504021931 | 10 | 290 | 0.0 | 0.0 | 0.00 | 0.00 | 0.00 | 49 | 1014.9 |
| 20260504021441 | 10 | 290 | 0.0 | 0.0 | 0.00 | 0.00 | 0.00 | 48 | 1014.9 |
| 20260504020932 | 10 | 290 | 0.0 | 0.0 | 0.00 | 0.00 | 0.00 | 48 | 1014.8 |
| 20260504020415 | 10 | 290 | 0.0 | 0.0 | 0.00 | 0.00 | 0.00 | 48 | 1014.9 |
| 20260504015907 | 10 | 290 | 0.0 | 0.0 | 0.00 | 0.00 | 0.00 | 48 | 1014.8 |
| 20260504015417 | 10 | 290 | 0.0 | 0.0 | 0.00 | 0.00 | 0.00 | 48 | 1014.8 |
| 20260504014927 | 10 | 290 | 0.0 | 0.0 | 0.00 | 0.00 | 0.00 | 48 | 1014.8 |
| 20260504013811 | 10 | 290 | 0.0 | 0.0 | 0.00 | 0.00 | 0.00 | 48 | 1014.8 |
| 20260504013256 | 10 | 290 | 0.0 | 0.0 | 0.00 | 0.00 | 0.00 | 48 | 1014.7 |
| 20260504012744 | 10 | 290 | 0.0 | 0.0 | 0.00 | 0.00 | 0.00 | 48 | 1014.7 |
| 20260504011629 | 10 | 290 | 0.0 | 0.0 | 0.00 | 0.00 | 0.00 | 49 | 1014.6 |
| 20260504011126 | 10 | 290 | 0.0 | 0.0 | 0.00 | 0.00 | 0.00 | 49 | 1014.5 |
| 20260504010010 | 11 | 290 | 0.0 | 0.0 | 0.00 | 0.00 | 0.00 | 46 | 1014.5 |
| 20260504005514 | 11 | 290 | 0.0 | 0.0 | 0.00 | 0.00 | 0.00 | 46 | 1014.5 |
| 20260504005013 | 11 | 290 | 0.0 | 0.0 | 0.00 | 0.00 | 0.00 | 45 | 1014.4 |
| 20260504004507 | 11 | 290 | 0.0 | 0.0 | 0.00 | 0.00 | 0.00 | 45 | 1014.4 |
| 20260504004015 | 12 | 290 | 0.0 | 0.0 | 0.00 | 0.00 | 0.00 | 46 | 1014.4 |
| 20260504003517 | 12 | 290 | 0.0 | 0.0 | 0.00 | 0.00 | 0.00 | 45 | 1014.3 |
| 20260504003022 | 12 | 290 | 0.0 | 0.0 | 0.00 | 0.00 | 0.00 | 43 | 1014.3 |
| 20260504000604 | 13 | 290 | 0.0 | 0.0 | 0.00 | 0.00 | 0.00 | 39 | 1014.1 |
| 20260504000052 | 13 | 290 | 0.0 | 0.0 | 0.00 | 0.00 | 0.00 | 39 | 1014.0 |
| 20260503235543 | 13 | 290 | 0.0 | 0.0 | 0.00 | 0.00 | 0.00 | 38 | 1014.0 |
| 20260503235037 | 13 | 290 | 0.0 | 0.0 | 0.00 | 0.00 | 0.00 | 38 | 1014.0 |
| 20260503234520 | 13 | 246 | 0.0 | 0.0 | 0.00 | 0.00 | 0.00 | 37 | 1014.0 |
| 20260503234018 | 14 | 246 | 0.0 | 0.0 | 0.00 | 0.00 | 0.00 | 36 | 1013.9 |
| 20260503233522 | 14 | 232 | 0.0 | 0.0 | 0.00 | 0.00 | 0.00 | 36 | 1013.9 |
| 20260503233020 | 14 | 241 | 0.0 | 0.0 | 0.00 | 0.00 | 0.00 | 36 | 1013.9 |
| 20260503232503 | 15 | 238 | 0.0 | 0.0 | 0.00 | 0.00 | 0.00 | 37 | 1013.8 |
| 20260503232012 | 15 | 229 | 0.0 | 0.0 | 0.00 | 0.00 | 0.00 | 36 | 1013.7 |
| 20260503231514 | 15 | 273 | 0.0 | 0.0 | 0.00 | 0.00 | 0.00 | 35 | 1013.7 |
| 20260503230343 | 16 | 304 | 0.0 | 0.0 | 0.00 | 0.00 | 0.00 | 34 | 1013.6 |
| 20260503225832 | 16 | 263 | 0.0 | 4.8 | 0.00 | 0.00 | 0.00 | 34 | 1013.6 |
| 20260503225337 | 16 | 288 | 0.0 | 4.8 | 0.00 | 0.00 | 0.00 | 33 | 1013.6 |
| 20260503224835 | 16 | 294 | 0.0 | 1.6 | 0.00 | 0.00 | 0.00 | 33 | 1013.6 |
| 20260503224322 | 16 | 269 | 0.0 | 4.8 | 0.00 | 0.00 | 0.00 | 33 | 1013.6 |
| 20260503223832 | 16 | 271 | 0.0 | 0.0 | 0.00 | 0.00 | 0.00 | 33 | 1013.6 |
| 20260503223325 | 16 | 306 | 0.0 | 0.0 | 0.00 | 0.00 | 0.00 | 33 | 1013.7 |
| 20260503222833 | 16 | 290 | 0.0 | 6.4 | 0.00 | 0.00 | 0.00 | 33 | 1013.7 |
| 20260503222322 | 16 | 254 | 0.0 | 0.0 | 0.00 | 0.00 | 0.00 | 34 | 1013.8 |
| 20260503221809 | 16 | 286 | 0.0 | 8.0 | 0.00 | 0.00 | 0.00 | 32 | 1013.8 |
| 20260503221312 | 16 | 267 | 0.0 | 3.2 | 0.00 | 0.00 | 0.00 | 34 | 1013.8 |
| 20260503220140 | 16 | 296 | 0.0 | 0.0 | 0.00 | 0.00 | 0.00 | 34 | 1013.8 |
| 20260503215639 | 16 | 263 | 0.0 | 12.9 | 0.00 | 0.00 | 0.00 | 34 | 1013.8 |
| 20260503215120 | 16 | 287 | 0.0 | 12.9 | 0.00 | 0.00 | 0.00 | 33 | 1013.8 |
| 20260503214608 | 16 | 292 | 0.0 | 12.9 | 0.00 | 0.00 | 0.00 | 34 | 1013.8 |
| 20260503214101 | 16 | 273 | 0.0 | 9.7 | 0.00 | 0.00 | 0.00 | 33 | 1013.8 |
| 20260503213555 | 16 | 253 | 0.0 | 0.0 | 0.00 | 0.00 | 0.00 | 33 | 1013.7 |
| 20260503213055 | 16 | 309 | 0.0 | 0.0 | 0.00 | 0.00 | 0.00 | 33 | 1013.7 |
| 20260503212539 | 16 | 248 | 0.0 | 12.9 | 0.00 | 0.00 | 0.00 | 31 | 1013.8 |
| 20260503212047 | 16 | 261 | 0.0 | 12.9 | 0.00 | 0.00 | 0.00 | 33 | 1013.7 |
| 20260503210928 | 16 | 355 | 0.0 | 1.6 | 0.00 | 0.00 | 0.00 | 33 | 1013.7 |
| 20260503210432 | 16 | 327 | 0.0 | 4.8 | 0.00 | 0.00 | 0.00 | 33 | 1013.8 |
| 20260503205919 | 16 | 271 | 0.0 | 14.5 | 0.00 | 0.00 | 0.00 | 32 | 1013.9 |
| 20260503205409 | 16 | 302 | 0.0 | 14.5 | 0.00 | 0.00 | 0.00 | 34 | 1013.8 |
| 20260503204915 | 16 | 311 | 0.0 | 0.0 | 0.00 | 0.00 | 0.00 | 35 | 1013.7 |
| 20260503204417 | 15 | 279 | 0.0 | 14.5 | 0.00 | 0.00 | 0.00 | 33 | 1013.8 |
| 20260503203907 | 15 | 236 | 0.0 | 20.9 | 0.00 | 0.00 | 0.00 | 34 | 1013.8 |
| 20260503203403 | 15 | 293 | 0.0 | 20.9 | 0.00 | 0.00 | 0.00 | 35 | 1013.7 |
| 20260503202851 | 15 | 296 | 1.6 | 20.9 | 0.00 | 0.00 | 0.00 | 33 | 1013.9 |
| 20260503202343 | 15 | 292 | 0.0 | 14.5 | 0.00 | 0.00 | 0.00 | 32 | 1013.8 |
| 20260503201852 | 15 | 234 | 0.0 | 14.5 | 0.00 | 0.00 | 0.00 | 32 | 1014.1 |
| 20260503201348 | 16 | 247 | 0.0 | 20.9 | 0.00 | 0.00 | 0.00 | 32 | 1014.2 |
| 20260503200842 | 16 | 66 | 0.0 | 20.9 | 0.00 | 0.00 | 0.00 | 34 | 1014.1 |
| 20260503200343 | 15 | 266 | 1.6 | 20.9 | 0.00 | 0.00 | 0.00 | 34 | 1014.2 |
| 20260503195835 | 15 | 311 | 0.0 | 20.9 | 0.00 | 0.00 | 0.00 | 34 | 1014.1 |
| 20260503195321 | 16 | 84 | 0.0 | 8.0 | 0.00 | 0.00 | 0.00 | 31 | 1014.2 |
| 20260503194827 | 16 | 347 | 0.0 | 0.0 | 0.00 | 0.00 | 0.00 | 35 | 1014.3 |
| 20260503194320 | 16 | 273 | 1.6 | 19.3 | 0.00 | 0.00 | 0.00 | 33 | 1014.4 |
| 20260503193823 | 16 | 246 | 1.6 | 19.3 | 0.00 | 0.00 | 0.00 | 32 | 1014.5 |
| 20260503193319 | 15 | 212 | 1.6 | 14.5 | 0.00 | 0.00 | 0.00 | 33 | 1014.5 |
| 20260503192819 | 15 | 257 | 1.6 | 16.1 | 0.00 | 0.00 | 0.00 | 33 | 1014.5 |
| 20260503192322 | 15 | 301 | 1.6 | 17.7 | 0.00 | 0.00 | 0.00 | 34 | 1014.6 |
| 20260503191811 | 15 | 157 | 3.2 | 17.7 | 0.00 | 0.00 | 0.00 | 33 | 1014.6 |
| 20260503191253 | 15 | 269 | 1.6 | 24.1 | 0.00 | 0.00 | 0.00 | 34 | 1014.7 |
| 20260503190759 | 15 | 248 | 3.2 | 24.1 | 0.00 | 0.00 | 0.00 | 35 | 1014.7 |
| 20260503190258 | 15 | 217 | 4.8 | 24.1 | 0.00 | 0.00 | 0.00 | 36 | 1014.7 |
| 20260503185808 | 15 | 271 | 1.6 | 24.1 | 0.00 | 0.00 | 0.00 | 36 | 1014.8 |
| 20260503185306 | 15 | 243 | 1.6 | 16.1 | 0.00 | 0.00 | 0.00 | 36 | 1015.0 |
| 20260503184750 | 15 | 248 | 1.6 | 12.9 | 0.00 | 0.00 | 0.00 | 38 | 1015.0 |
| 20260503183618 | 14 | 277 | 3.2 | 22.5 | 0.00 | 0.00 | 0.00 | 43 | 1015.1 |
| 20260503183125 | 13 | 313 | 1.6 | 22.5 | 0.00 | 0.00 | 0.00 | 37 | 1015.2 |
| 20260503182624 | 14 | 198 | 0.0 | 16.1 | 0.00 | 0.00 | 0.00 | 37 | 1015.4 |
| 20260503182117 | 14 | 319 | 1.6 | 17.7 | 0.00 | 0.00 | 0.00 | 38 | 1015.3 |
| 20260503181615 | 14 | 292 | 1.6 | 11.3 | 0.00 | 0.00 | 0.00 | 40 | 1015.3 |
| 20260503180513 | 13 | 280 | 1.6 | 19.3 | 0.00 | 0.00 | 0.00 | 40 | 1015.4 |
| 20260503180024 | 13 | 283 | 3.2 | 19.3 | 0.00 | 0.00 | 0.00 | 38 | 1015.5 |
| 20260503174908 | 13 | 284 | 1.6 | 17.7 | 0.00 | 0.00 | 0.00 | 39 | 1015.5 |
| 20260503174412 | 13 | 216 | 3.2 | 17.7 | 0.00 | 0.00 | 0.00 | 39 | 1015.5 |
| 20260503173903 | 13 | 286 | 1.6 | 17.7 | 0.00 | 0.00 | 0.00 | 39 | 1015.5 |
| 20260503172751 | 13 | 281 | 3.2 | 19.3 | 0.00 | 0.00 | 0.00 | 41 | 1015.7 |
| 20260503172232 | 13 | 245 | 3.2 | 19.3 | 0.00 | 0.00 | 0.00 | 41 | 1015.6 |
| 20260503171741 | 13 | 257 | 1.6 | 19.3 | 0.00 | 0.00 | 0.00 | 43 | 1015.6 |
| 20260503171229 | 12 | 37 | 1.6 | 9.7 | 0.00 | 0.00 | 0.00 | 42 | 1015.7 |
| 20260503170728 | 12 | 290 | 0.0 | 17.7 | 0.00 | 0.00 | 0.00 | 43 | 1015.8 |
| 20260503170221 | 12 | 267 | 0.0 | 19.3 | 0.00 | 0.00 | 0.00 | 45 | 1015.7 |
| 20260503160118 | 11 | 275 | 3.2 | 17.7 | 0.00 | 0.00 | 0.00 | 42 | 1016.3 |
| 20260503150634 | 10 | 323 | 3.2 | 16.1 | 0.00 | 0.00 | 0.00 | 45 | 1016.4 |
| 20260503150125 | 10 | 57 | 1.6 | 16.1 | 0.00 | 0.00 | 0.00 | 47 | 1016.5 |
| 20260503131354 | 7 | 319 | 0.0 | 6.4 | 0.00 | 0.00 | 0.00 | 57 | 1016.5 |
| 20260503130844 | 7 | 252 | 0.0 | 17.7 | 0.00 | 0.00 | 0.00 | 59 | 1016.5 |
| 20260503130333 | 6 | 267 | 0.0 | 11.3 | 0.00 | 0.00 | 0.00 | 59 | 1016.5 |
| 20260503120125 | 4 | 234 | 0.0 | 11.3 | 0.00 | 0.00 | 0.00 | 55 | 1016.2 |
| 20260503110300 | 3 | 310 | 0.0 | 0.0 | 0.00 | 0.00 | 0.00 | 46 | 1015.5 |